Precipitable_Water
1.56 1.58 1.59 1.62 1.60 1.62 1.60 1.53 1.49 1.44 1.36 1.39 1.39 1.39 1.38 1.38 1.38 1.40 1.44 1.48 1.49 1.48 1.46 1.44 1.42 1.39 1.36 1.29 1.27 1.21 1.17 1.15 1.13 1.08 1.07 1.11 1.14 1.12 1.11 1.11 1.13 1.11 1.08 1.06 1.03 0.98 0.91 0.93 0.88 0.87 0.88 0.86 0.85 0.87 0.87 0.83 0.79 0.79 0.78 0.73 0.73 0.73 0.73 0.82 0.92 1.12 1.16 1.27 1.37 1.45 1.51 1.53 1.54 1.50 1.47 1.48 1.47 1.49 1.50 1.51 1.55 1.56 1.51 1.47 1.48
1.50 1.63 1.61 1.64 1.62 1.64 1.59 1.52 1.48 1.43 1.41 1.42 1.40 1.38 1.36 1.36 1.36 1.36 1.39 1.42 1.45 1.46 1.44 1.43 1.44 1.42 1.35 1.30 1.25 1.25 1.23 1.20 1.15 1.11 1.11 1.10 1.11 1.11 1.11 1.13 1.13 1.11 1.09 1.05 1.03 0.93 0.94 0.94 0.92 0.88 0.88 0.90 0.92 0.93 0.92 0.89 0.84 0.81 0.80 0.81 0.81 0.81 0.83 0.92 1.01 1.08 1.19 1.29 1.37 1.43 1.46 1.49 1.51 1.54 1.52 1.51 1.53 1.54 1.54 1.56 1.54 1.53 1.52 1.44 1.43
1.60 1.62 1.64 1.67 1.66 1.66 1.57 1.52 1.47 1.39 1.41 1.43 1.41 1.38 1.35 1.34 1.34 1.35 1.35 1.38 1.41 1.42 1.43 1.42 1.42 1.41 1.35 1.29 1.21 1.29 1.25 1.21 1.16 1.14 1.12 1.08 1.09 1.09 1.11 1.12 1.11 1.10 1.10 1.08 0.98 0.96 0.98 0.98 0.92 0.92 0.93 0.93 0.95 0.97 0.98 0.97 0.89 0.83 0.82 0.82 0.83 0.84 0.88 0.90 1.00 1.04 1.12 1.25 1.33 1.40 1.45 1.50 1.53 1.51 1.52 1.53 1.55 1.52 1.47 1.50 1.51 1.52 1.54 1.45 1.38
1.53 1.60 1.67 1.71 1.70 1.63 1.55 1.50 1.44 1.38 1.41 1.41 1.39 1.37 1.35 1.34 1.33 1.33 1.34 1.33 1.34 1.36 1.38 1.40 1.39 1.40 1.35 1.28 1.21 1.29 1.25 1.22 1.19 1.16 1.12 1.07 1.07 1.09 1.08 1.10 1.16 1.17 1.10 1.03 1.00 1.04 1.00 0.97 0.98 0.96 0.97 0.97 0.98 1.00 1.00 1.01 0.98 0.89 0.82 0.81 0.83 0.84 0.86 0.88 0.94 1.01 1.07 1.13 1.21 1.30 1.36 1.41 1.50 1.53 1.52 1.51 1.50 1.47 1.48 1.51 1.52 1.50 1.47 1.39 1.32
1.58 1.67 1.72 1.73 1.69 1.61 1.56 1.52 1.42 1.41 1.43 1.44 1.42 1.40 1.38 1.38 1.36 1.34 1.33 1.33 1.33 1.34 1.34 1.34 1.35 1.35 1.32 1.27 1.23 1.23 1.27 1.23 1.20 1.18 1.13 1.10 1.09 1.11 1.15 1.18 1.17 1.09 1.02 1.08 1.08 1.04 1.03 1.04 1.03 1.04 1.06 1.05 1.02 1.04 1.03 1.03 1.03 0.98 0.87 0.81 0.82 0.85 0.85 0.85 0.88 0.92 0.95 1.01 1.08 1.16 1.21 1.25 1.31 1.33 1.38 1.42 1.44 1.43 1.45 1.47 1.44 1.40 1.35 1.29 1.22
1.70 1.73 1.71 1.69 1.65 1.62 1.58 1.50 1.43 1.44 1.45 1.45 1.43 1.41 1.39 1.37 1.37 1.37 1.37 1.35 1.35 1.35 1.34 1.34 1.33 1.31 1.30 1.28 1.22 1.21 1.28 1.25 1.24 1.22 1.14 1.11 1.10 1.16 1.22 1.19 1.17 1.07 1.06 1.11 1.09 1.09 1.09 1.08 1.09 1.12 1.12 1.11 1.07 1.06 1.06 1.06 1.05 1.03 0.96 0.84 0.80 0.83 0.85 0.83 0.83 0.83 0.84 0.88 0.95 1.01 1.08 1.14 1.16 1.23 1.27 1.28 1.29 1.32 1.33 1.30 1.29 1.25 1.17 1.13 1.08
1.73 1.68 1.67 1.66 1.67 1.64 1.58 1.49 1.44 1.47 1.47 1.44 1.42 1.41 1.40 1.38 1.36 1.35 1.36 1.37 1.36 1.35 1.33 1.31 1.30 1.29 1.29 1.27 1.24 1.24 1.26 1.29 1.30 1.25 1.18 1.14 1.11 1.13 1.17 1.20 1.19 1.09 1.10 1.14 1.15 1.16 1.15 1.13 1.15 1.18 1.19 1.18 1.15 1.10 1.08 1.07 1.07 1.07 1.03 0.92 0.81 0.80 0.83 0.84 0.83 0.83 0.82 0.82 0.85 0.90 0.95 1.01 1.06 1.11 1.14 1.14 1.14 1.13 1.14 1.13 1.10 1.07 1.04 1.01 0.98
1.73 1.67 1.69 1.70 1.69 1.64 1.56 1.48 1.46 1.47 1.47 1.46 1.44 1.41 1.39 1.38 1.37 1.37 1.37 1.36 1.36 1.34 1.32 1.31 1.30 1.29 1.27 1.26 1.26 1.26 1.31 1.40 1.36 1.30 1.26 1.17 1.08 1.08 1.14 1.20 1.18 1.09 1.14 1.17 1.20 1.23 1.21 1.17 1.18 1.19 1.20 1.20 1.16 1.14 1.11 1.09 1.07 1.08 1.07 1.00 0.88 0.80 0.80 0.83 0.82 0.82 0.80 0.78 0.79 0.82 0.83 0.88 0.94 0.98 1.03 1.01 1.02 1.01 1.01 1.01 1.00 0.99 0.96 0.94 0.94
1.70 1.72 1.71 1.70 1.67 1.61 1.52 1.45 1.44 1.47 1.47 1.47 1.45 1.41 1.38 1.36 1.37 1.38 1.38 1.37 1.37 1.35 1.35 1.34 1.32 1.28 1.26 1.28 1.32 1.36 1.39 1.43 1.41 1.33 1.27 1.17 1.09 1.09 1.11 1.14 1.13 1.14 1.16 1.19 1.22 1.22 1.21 1.22 1.20 1.17 1.19 1.19 1.17 1.16 1.12 1.08 1.06 1.06 1.06 1.02 0.93 0.85 0.80 0.81 0.81 0.79 0.78 0.79 0.78 0.77 0.75 0.79 0.81 0.87 0.91 0.89 0.88 0.88 0.87 0.90 0.92 0.93 0.93 0.92 0.90
1.68 1.70 1.68 1.66 1.63 1.57 1.47 1.43 1.45 1.47 1.48 1.48 1.46 1.43 1.40 1.38 1.36 1.35 1.35 1.36 1.36 1.37 1.36 1.35 1.34 1.32 1.32 1.34 1.38 1.39 1.41 1.41 1.39 1.35 1.28 1.19 1.14 1.12 1.12 1.13 1.13 1.15 1.18 1.22 1.22 1.25 1.25 1.24 1.21 1.20 1.20 1.18 1.17 1.14 1.09 1.05 1.03 1.02 1.03 1.01 0.96 0.87 0.84 0.80 0.79 0.77 0.76 0.78 0.77 0.76 0.77 0.79 0.77 0.78 0.83 0.84 0.87 0.91 0.86 0.89 0.91 0.94 0.93 0.92 0.87
1.66 1.65 1.65 1.64 1.61 1.52 1.44 1.44 1.47 1.48 1.49 1.49 1.46 1.43 1.41 1.39 1.38 1.36 1.35 1.35 1.36 1.38 1.37 1.37 1.39 1.41 1.43 1.41 1.42 1.43 1.46 1.43 1.41 1.36 1.32 1.21 1.14 1.17 1.17 1.15 1.14 1.14 1.19 1.21 1.22 1.25 1.26 1.24 1.23 1.19 1.17 1.15 1.13 1.11 1.08 1.06 1.04 1.03 1.02 1.02 0.98 0.90 0.85 0.82 0.81 0.81 0.81 0.81 0.80 0.78 0.76 0.80 0.82 0.82 0.85 0.86 0.92 0.90 0.88 0.85 0.88 0.86 0.85 0.85 0.84
1.63 1.64 1.64 1.63 1.60 1.51 1.44 1.46 1.48 1.50 1.51 1.49 1.46 1.46 1.43 1.42 1.41 1.40 1.38 1.38 1.38 1.37 1.33 1.34 1.36 1.38 1.42 1.46 1.47 1.46 1.50 1.45 1.44 1.38 1.26 1.16 1.16 1.15 1.14 1.16 1.15 1.16 1.20 1.22 1.23 1.27 1.27 1.25 1.23 1.18 1.13 1.11 1.12 1.12 1.12 1.12 1.10 1.07 1.05 1.04 1.02 0.94 0.86 0.84 0.85 0.84 0.85 0.82 0.80 0.81 0.82 0.84 0.84 0.81 0.80 0.83 0.83 0.83 0.84 0.85 0.85 0.81 0.81 0.81 0.82
1.59 1.62 1.64 1.62 1.58 1.51 1.46 1.47 1.50 1.53 1.52 1.49 1.49 1.48 1.46 1.44 1.43 1.44 1.44 1.40 1.35 1.29 1.22 1.25 1.29 1.32 1.38 1.42 1.44 1.44 1.47 1.43 1.42 1.27 1.16 1.16 1.18 1.16 1.12 1.10 1.15 1.20 1.22 1.24 1.25 1.27 1.26 1.23 1.20 1.16 1.13 1.12 1.12 1.14 1.14 1.13 1.12 1.12 1.09 1.07 1.04 0.98 0.91 0.85 0.84 0.83 0.84 0.83 0.80 0.81 0.82 0.81 0.78 0.76 0.77 0.78 0.81 0.82 0.81 0.81 0.80 0.81 0.80 0.80 0.80
1.56 1.59 1.62 1.61 1.58 1.53 1.48 1.50 1.53 1.55 1.54 1.53 1.49 1.48 1.48 1.47 1.44 1.40 1.36 1.33 1.31 1.25 1.22 1.22 1.24 1.26 1.30 1.33 1.35 1.34 1.33 1.28 1.23 1.16 1.16 1.15 1.14 1.15 1.17 1.14 1.15 1.21 1.23 1.24 1.26 1.26 1.24 1.21 1.19 1.18 1.13 1.11 1.11 1.13 1.14 1.12 1.10 1.12 1.11 1.08 1.06 1.01 0.96 0.91 0.87 0.85 0.83 0.83 0.86 0.88 0.88 0.87 0.84 0.82 0.82 0.83 0.84 0.80 0.79 0.79 0.80 0.79 0.78 0.77 0.77
1.55 1.60 1.61 1.60 1.58 1.53 1.53 1.54 1.56 1.55 1.54 1.53 1.53 1.54 1.50 1.43 1.37 1.34 1.32 1.31 1.28 1.25 1.22 1.20 1.19 1.19 1.19 1.19 1.19 1.17 1.15 1.16 1.15 1.15 1.17 1.15 1.14 1.15 1.18 1.17 1.16 1.19 1.19 1.24 1.25 1.25 1.24 1.23 1.22 1.19 1.15 1.11 1.11 1.14 1.15 1.12 1.11 1.11 1.09 1.06 1.04 1.02 0.99 0.94 0.91 0.89 0.86 0.86 0.88 0.89 0.87 0.85 0.83 0.85 0.84 0.83 0.83 0.81 0.79 0.73 0.75 0.78 0.78 0.77 0.78
1.58 1.60 1.62 1.60 1.59 1.58 1.56 1.57 1.57 1.56 1.54 1.54 1.54 1.48 1.43 1.38 1.36 1.34 1.33 1.34 1.32 1.27 1.27 1.27 1.29 1.31 1.31 1.29 1.22 1.21 1.24 1.28 1.30 1.24 1.17 1.14 1.15 1.15 1.19 1.20 1.20 1.18 1.15 1.20 1.24 1.26 1.26 1.23 1.19 1.16 1.14 1.13 1.12 1.15 1.17 1.15 1.12 1.12 1.10 1.07 1.04 1.03 1.01 0.96 0.93 0.92 0.90 0.89 0.89 0.91 0.93 0.91 0.90 0.87 0.86 0.85 0.82 0.80 0.79 0.80 0.79 0.74 0.75 0.79 0.80
1.59 1.61 1.57 1.58 1.59 1.56 1.56 1.58 1.58 1.58 1.58 1.54 1.48 1.44 1.41 1.41 1.39 1.38 1.39 1.36 1.32 1.27 1.28 1.31 1.34 1.36 1.38 1.37 1.31 1.32 1.39 1.45 1.43 1.35 1.29 1.22 1.21 1.19 1.19 1.25 1.24 1.18 1.19 1.21 1.24 1.24 1.23 1.21 1.19 1.17 1.14 1.14 1.15 1.17 1.19 1.18 1.14 1.11 1.10 1.09 1.06 1.04 1.02 1.00 0.96 0.95 0.94 0.92 0.92 0.95 0.97 0.94 0.91 0.89 0.88 0.86 0.83 0.83 0.83 0.82 0.81 0.79 0.77 0.77 0.79
1.57 1.58 1.55 1.58 1.58 1.57 1.58 1.60 1.62 1.59 1.53 1.48 1.48 1.46 1.44 1.42 1.41 1.41 1.40 1.36 1.31 1.27 1.28 1.30 1.33 1.36 1.39 1.36 1.38 1.46 1.52 1.51 1.53 1.48 1.40 1.32 1.29 1.28 1.30 1.30 1.28 1.23 1.23 1.22 1.23 1.24 1.25 1.23 1.20 1.17 1.15 1.14 1.16 1.18 1.21 1.20 1.16 1.13 1.12 1.11 1.08 1.05 1.03 1.04 1.02 1.00 0.97 0.95 0.94 0.96 0.95 0.92 0.93 0.95 0.92 0.88 0.87 0.86 0.85 0.84 0.80 0.77 0.76 0.74 0.72
1.57 1.58 1.58 1.58 1.58 1.59 1.61 1.61 1.57 1.50 1.48 1.46 1.48 1.46 1.45 1.44 1.43 1.43 1.43 1.39 1.29 1.27 1.27 1.29 1.32 1.34 1.35 1.38 1.46 1.50 1.59 1.52 1.58 1.55 1.48 1.42 1.39 1.33 1.33 1.35 1.32 1.26 1.22 1.22 1.23 1.25 1.27 1.24 1.20 1.17 1.15 1.14 1.14 1.17 1.22 1.24 1.20 1.16 1.13 1.13 1.11 1.08 1.06 1.07 1.05 1.04 1.03 1.01 0.99 0.98 0.97 0.96 0.98 0.99 0.98 0.95 0.91 0.87 0.85 0.84 0.83 0.82 0.81 0.79 0.77
1.55 1.58 1.58 1.59 1.60 1.61 1.60 1.56 1.49 1.47 1.46 1.48 1.49 1.49 1.47 1.46 1.47 1.47 1.46 1.38 1.28 1.24 1.24 1.26 1.30 1.33 1.38 1.42 1.46 1.54 1.52 1.50 1.51 1.51 1.49 1.50 1.46 1.44 1.32 1.34 1.34 1.32 1.26 1.20 1.20 1.22 1.23 1.21 1.19 1.15 1.15 1.15 1.14 1.14 1.20 1.24 1.24 1.20 1.17 1.16 1.14 1.11 1.09 1.11 1.09 1.09 1.10 1.06 1.05 1.02 0.99 1.00 0.99 0.98 0.99 0.98 0.95 0.93 0.90 0.88 0.87 0.85 0.83 0.79 0.79
1.51 1.55 1.56 1.57 1.60 1.57 1.52 1.48 1.45 1.45 1.47 1.48 1.51 1.50 1.54 1.51 1.51 1.51 1.46 1.34 1.27 1.23 1.24 1.29 1.34 1.39 1.42 1.45 1.47 1.53 1.54 1.52 1.55 1.54 1.55 1.62 1.54 1.44 1.31 1.22 1.26 1.29 1.27 1.20 1.17 1.18 1.19 1.18 1.18 1.16 1.13 1.15 1.16 1.17 1.18 1.23 1.26 1.25 1.22 1.19 1.17 1.16 1.15 1.14 1.14 1.13 1.12 1.09 1.08 1.06 1.05 1.07 1.05 1.01 0.99 0.99 0.95 0.93 0.93 0.92 0.90 0.87 0.85 0.82 0.79
1.42 1.47 1.54 1.55 1.51 1.50 1.47 1.46 1.44 1.47 1.48 1.48 1.51 1.54 1.56 1.56 1.56 1.54 1.45 1.32 1.26 1.28 1.37 1.42 1.48 1.51 1.50 1.52 1.53 1.54 1.53 1.56 1.57 1.53 1.52 1.50 1.49 1.40 1.33 1.25 1.21 1.23 1.24 1.20 1.15 1.14 1.16 1.16 1.18 1.18 1.14 1.14 1.16 1.19 1.20 1.22 1.25 1.27 1.25 1.23 1.19 1.18 1.17 1.17 1.16 1.15 1.14 1.12 1.12 1.11 1.14 1.11 1.08 1.05 1.02 0.99 0.98 0.97 0.96 0.95 0.92 0.88 0.86 0.84 0.82
1.34 1.42 1.47 1.52 1.48 1.47 1.48 1.45 1.46 1.48 1.49 1.49 1.52 1.56 1.59 1.59 1.58 1.56 1.47 1.36 1.38 1.46 1.49 1.49 1.50 1.52 1.52 1.50 1.51 1.52 1.53 1.54 1.53 1.51 1.52 1.48 1.44 1.38 1.35 1.29 1.22 1.19 1.18 1.16 1.14 1.11 1.13 1.15 1.17 1.19 1.15 1.12 1.15 1.18 1.19 1.22 1.25 1.28 1.31 1.29 1.23 1.19 1.19 1.18 1.17 1.17 1.15 1.16 1.18 1.18 1.16 1.13 1.12 1.10 1.04 1.01 0.99 0.98 0.96 0.95 0.90 0.87 0.88 0.87 0.85
1.36 1.42 1.47 1.52 1.52 1.47 1.47 1.47 1.46 1.48 1.47 1.50 1.52 1.56 1.58 1.60 1.58 1.53 1.45 1.43 1.47 1.49 1.49 1.50 1.54 1.55 1.55 1.54 1.52 1.50 1.49 1.50 1.49 1.48 1.44 1.38 1.40 1.38 1.34 1.30 1.24 1.17 1.13 1.10 1.10 1.09 1.10 1.13 1.16 1.17 1.16 1.13 1.12 1.16 1.19 1.20 1.24 1.31 1.34 1.35 1.28 1.22 1.19 1.17 1.17 1.17 1.17 1.19 1.21 1.21 1.19 1.19 1.18 1.16 1.14 1.10 1.06 1.02 0.99 0.99 0.97 0.93 0.89 0.89 0.88
1.53 1.56 1.55 1.50 1.52 1.50 1.47 1.47 1.48 1.49 1.48 1.50 1.52 1.54 1.59 1.60 1.57 1.54 1.49 1.46 1.46 1.49 1.50 1.53 1.56 1.57 1.56 1.52 1.50 1.47 1.45 1.48 1.47 1.43 1.39 1.39 1.36 1.34 1.33 1.32 1.27 1.19 1.12 1.06 1.06 1.06 1.09 1.11 1.13 1.15 1.16 1.13 1.10 1.12 1.16 1.18 1.24 1.30 1.34 1.31 1.28 1.25 1.22 1.20 1.19 1.18 1.21 1.22 1.24 1.22 1.21 1.21 1.21 1.22 1.21 1.14 1.08 1.01 0.93 0.93 0.95 0.90 0.90 0.89 0.89
1.59 1.50 1.52 1.54 1.53 1.52 1.51 1.50 1.49 1.49 1.52 1.53 1.54 1.57 1.59 1.56 1.53 1.53 1.48 1.43 1.45 1.49 1.52 1.55 1.58 1.59 1.58 1.56 1.52 1.46 1.44 1.42 1.36 1.32 1.34 1.34 1.32 1.31 1.33 1.30 1.24 1.18 1.18 1.11 1.08 1.07 1.08 1.12 1.12 1.10 1.10 1.12 1.10 1.09 1.13 1.19 1.22 1.29 1.31 1.29 1.26 1.25 1.24 1.22 1.21 1.20 1.24 1.25 1.25 1.23 1.22 1.22 1.26 1.30 1.25 1.19 1.12 1.04 0.95 0.96 0.94 0.92 0.89 0.88 0.86
1.62 1.59 1.59 1.55 1.56 1.54 1.53 1.55 1.51 1.54 1.54 1.59 1.60 1.61 1.60 1.60 1.58 1.56 1.50 1.46 1.51 1.52 1.54 1.57 1.60 1.61 1.60 1.59 1.53 1.49 1.42 1.36 1.33 1.34 1.35 1.36 1.31 1.30 1.27 1.24 1.21 1.20 1.21 1.18 1.13 1.11 1.11 1.14 1.16 1.11 1.10 1.09 1.09 1.08 1.10 1.17 1.23 1.28 1.32 1.30 1.29 1.30 1.29 1.26 1.26 1.25 1.29 1.28 1.27 1.25 1.25 1.27 1.27 1.28 1.25 1.21 1.12 1.04 1.00 0.95 0.96 0.96 0.95 0.94 0.91
1.55 1.56 1.58 1.55 1.51 1.51 1.55 1.55 1.54 1.54 1.56 1.60 1.60 1.61 1.62 1.60 1.58 1.57 1.54 1.53 1.56 1.55 1.55 1.58 1.61 1.62 1.63 1.63 1.60 1.51 1.41 1.36 1.40 1.42 1.41 1.42 1.38 1.38 1.34 1.32 1.29 1.29 1.26 1.23 1.18 1.15 1.15 1.19 1.22 1.17 1.15 1.15 1.13 1.13 1.14 1.17 1.23 1.29 1.31 1.31 1.34 1.35 1.33 1.31 1.30 1.31 1.32 1.32 1.34 1.29 1.30 1.32 1.30 1.30 1.28 1.26 1.17 1.05 1.01 0.97 0.95 0.93 0.93 0.92 0.92
1.37 1.50 1.54 1.51 1.51 1.54 1.58 1.56 1.57 1.58 1.60 1.62 1.60 1.62 1.63 1.62 1.60 1.59 1.55 1.58 1.58 1.55 1.54 1.58 1.58 1.61 1.61 1.64 1.66 1.52 1.45 1.41 1.40 1.41 1.41 1.40 1.39 1.40 1.40 1.36 1.38 1.36 1.35 1.24 1.22 1.19 1.25 1.30 1.26 1.23 1.24 1.23 1.22 1.19 1.18 1.18 1.22 1.28 1.32 1.32 1.34 1.35 1.33 1.32 1.32 1.32 1.33 1.36 1.39 1.34 1.36 1.36 1.33 1.32 1.30 1.27 1.22 1.14 1.09 1.03 0.97 0.93 0.91 0.91 0.89
1.29 1.41 1.46 1.53 1.59 1.61 1.59 1.57 1.57 1.59 1.62 1.61 1.60 1.60 1.60 1.60 1.58 1.57 1.57 1.60 1.58 1.56 1.56 1.55 1.58 1.59 1.60 1.66 1.65 1.54 1.44 1.41 1.40 1.38 1.36 1.37 1.39 1.41 1.41 1.42 1.41 1.38 1.39 1.33 1.32 1.31 1.31 1.29 1.25 1.25 1.24 1.25 1.26 1.26 1.25 1.22 1.24 1.28 1.33 1.35 1.37 1.36 1.35 1.33 1.33 1.33 1.36 1.39 1.42 1.39 1.40 1.38 1.35 1.31 1.29 1.28 1.26 1.24 1.21 1.16 1.09 1.00 0.94 0.91 0.89
1.18 1.19 1.36 1.51 1.59 1.60 1.57 1.60 1.59 1.61 1.63 1.60 1.58 1.57 1.59 1.56 1.55 1.67 1.61 1.58 1.58 1.56 1.53 1.53 1.56 1.58 1.62 1.67 1.63 1.55 1.45 1.43 1.39 1.38 1.40 1.41 1.43 1.45 1.43 1.44 1.41 1.42 1.42 1.40 1.42 1.37 1.36 1.32 1.29 1.29 1.26 1.27 1.30 1.32 1.30 1.27 1.28 1.28 1.33 1.36 1.37 1.38 1.37 1.37 1.36 1.37 1.38 1.42 1.44 1.45 1.45 1.43 1.41 1.37 1.33 1.30 1.30 1.32 1.29 1.25 1.19 1.10 1.04 1.00 0.95
1.20 1.20 1.31 1.48 1.50 1.51 1.56 1.59 1.60 1.60 1.57 1.56 1.58 1.56 1.54 1.54 1.59 1.60 1.58 1.57 1.55 1.51 1.51 1.55 1.58 1.60 1.67 1.63 1.58 1.54 1.50 1.46 1.44 1.43 1.45 1.46 1.47 1.46 1.45 1.43 1.42 1.46 1.49 1.47 1.44 1.44 1.41 1.39 1.38 1.38 1.37 1.37 1.35 1.35 1.35 1.32 1.29 1.31 1.34 1.34 1.37 1.36 1.38 1.40 1.39 1.40 1.41 1.44 1.46 1.47 1.49 1.49 1.49 1.45 1.40 1.35 1.34 1.36 1.37 1.33 1.28 1.23 1.18 1.12 1.05
1.19 1.26 1.33 1.40 1.44 1.48 1.52 1.58 1.60 1.58 1.54 1.54 1.55 1.56 1.56 1.56 1.58 1.57 1.57 1.53 1.50 1.49 1.53 1.57 1.58 1.61 1.64 1.58 1.54 1.52 1.53 1.51 1.50 1.50 1.53 1.55 1.52 1.48 1.45 1.45 1.45 1.46 1.47 1.46 1.45 1.45 1.42 1.39 1.38 1.40 1.39 1.37 1.36 1.35 1.37 1.35 1.31 1.32 1.34 1.34 1.36 1.36 1.39 1.40 1.41 1.40 1.41 1.46 1.49 1.49 1.53 1.51 1.53 1.50 1.44 1.39 1.36 1.39 1.42 1.39 1.32 1.30 1.29 1.23 1.19
1.14 1.19 1.26 1.34 1.46 1.50 1.53 1.55 1.58 1.55 1.55 1.55 1.57 1.55 1.55 1.57 1.59 1.57 1.52 1.48 1.48 1.51 1.57 1.61 1.62 1.60 1.63 1.58 1.52 1.52 1.55 1.57 1.53 1.54 1.57 1.54 1.51 1.48 1.45 1.45 1.48 1.47 1.47 1.45 1.42 1.44 1.40 1.37 1.35 1.35 1.32 1.32 1.31 1.33 1.33 1.31 1.33 1.35 1.33 1.34 1.36 1.38 1.42 1.40 1.40 1.42 1.44 1.51 1.49 1.44 1.45 1.47 1.49 1.49 1.48 1.44 1.39 1.39 1.41 1.44 1.45 1.40 1.36 1.32 1.28
1.15 1.18 1.18 1.26 1.38 1.44 1.48 1.50 1.51 1.48 1.52 1.54 1.56 1.58 1.57 1.56 1.55 1.52 1.48 1.48 1.49 1.54 1.58 1.61 1.60 1.60 1.59 1.53 1.49 1.52 1.58 1.55 1.54 1.55 1.54 1.54 1.51 1.50 1.50 1.50 1.51 1.50 1.46 1.47 1.45 1.44 1.42 1.37 1.37 1.32 1.32 1.31 1.31 1.30 1.29 1.27 1.27 1.26 1.30 1.35 1.36 1.40 1.42 1.41 1.44 1.45 1.49 1.51 1.50 1.47 1.50 1.50 1.52 1.50 1.52 1.49 1.46 1.41 1.39 1.42 1.42 1.43 1.41 1.39 1.34
1.11 1.15 1.21 1.26 1.26 1.34 1.45 1.46 1.46 1.44 1.49 1.53 1.58 1.58 1.56 1.55 1.52 1.48 1.47 1.47 1.48 1.54 1.56 1.55 1.55 1.56 1.54 1.50 1.49 1.52 1.56 1.55 1.54 1.56 1.53 1.53 1.52 1.50 1.51 1.52 1.51 1.49 1.47 1.46 1.45 1.42 1.41 1.39 1.38 1.35 1.27 1.25 1.26 1.23 1.25 1.22 1.23 1.24 1.28 1.32 1.36 1.39 1.40 1.43 1.44 1.47 1.52 1.51 1.46 1.48 1.54 1.54 1.53 1.54 1.54 1.53 1.50 1.49 1.44 1.42 1.43 1.42 1.42 1.43 1.38
1.12 1.14 1.19 1.20 1.21 1.29 1.38 1.38 1.39 1.43 1.47 1.51 1.54 1.53 1.52 1.48 1.45 1.44 1.44 1.44 1.46 1.50 1.54 1.53 1.51 1.50 1.50 1.50 1.50 1.51 1.56 1.56 1.54 1.56 1.54 1.52 1.51 1.51 1.50 1.51 1.51 1.48 1.45 1.45 1.42 1.42 1.39 1.34 1.34 1.34 1.29 1.19 1.18 1.16 1.17 1.19 1.19 1.21 1.24 1.28 1.33 1.37 1.39 1.42 1.44 1.47 1.53 1.47 1.50 1.54 1.54 1.54 1.53 1.52 1.55 1.55 1.60 1.58 1.52 1.48 1.47 1.45 1.44 1.43 1.41
1.12 1.16 1.20 1.19 1.22 1.31 1.32 1.35 1.40 1.44 1.47 1.49 1.49 1.48 1.47 1.46 1.44 1.43 1.42 1.43 1.46 1.50 1.51 1.48 1.47 1.47 1.48 1.49 1.51 1.54 1.51 1.52 1.52 1.53 1.53 1.54 1.53 1.48 1.47 1.48 1.49 1.45 1.42 1.41 1.39 1.41 1.38 1.32 1.24 1.24 1.22 1.15 1.10 1.09 1.10 1.15 1.17 1.17 1.20 1.25 1.29 1.32 1.36 1.41 1.44 1.48 1.49 1.50 1.51 1.50 1.48 1.44 1.54 1.55 1.56 1.59 1.63 1.61 1.58 1.52 1.48 1.47 1.44 1.44 1.43
1.13 1.18 1.23 1.28 1.32 1.32 1.33 1.35 1.39 1.42 1.44 1.46 1.47 1.46 1.46 1.44 1.43 1.41 1.40 1.42 1.44 1.47 1.49 1.44 1.45 1.44 1.44 1.47 1.51 1.51 1.47 1.49 1.52 1.54 1.52 1.51 1.49 1.45 1.42 1.43 1.44 1.40 1.35 1.31 1.29 1.28 1.26 1.23 1.17 1.14 1.18 1.16 1.12 1.11 1.11 1.14 1.14 1.16 1.19 1.24 1.29 1.32 1.36 1.39 1.42 1.44 1.48 1.52 1.51 1.47 1.46 1.47 1.55 1.55 1.52 1.54 1.59 1.57 1.54 1.52 1.51 1.52 1.50 1.47 1.47
1.17 1.22 1.27 1.29 1.31 1.34 1.34 1.37 1.40 1.42 1.43 1.44 1.44 1.41 1.40 1.36 1.32 1.34 1.33 1.37 1.39 1.41 1.45 1.41 1.42 1.42 1.44 1.47 1.47 1.45 1.47 1.49 1.49 1.50 1.47 1.42 1.39 1.36 1.34 1.36 1.34 1.32 1.26 1.21 1.19 1.18 1.15 1.15 1.14 1.12 1.11 1.13 1.16 1.14 1.14 1.11 1.12 1.13 1.16 1.23 1.29 1.33 1.33 1.38 1.41 1.42 1.46 1.49 1.49 1.49 1.45 1.48 1.53 1.50 1.53 1.53 1.55 1.54 1.53 1.52 1.51 1.49 1.49 1.47 1.47
1.17 1.21 1.25 1.27 1.31 1.33 1.33 1.33 1.41 1.44 1.42 1.39 1.38 1.35 1.31 1.30 1.30 1.26 1.24 1.30 1.32 1.37 1.37 1.37 1.37 1.41 1.44 1.44 1.40 1.43 1.44 1.44 1.44 1.42 1.38 1.34 1.33 1.32 1.30 1.28 1.29 1.27 1.23 1.19 1.20 1.19 1.19 1.17 1.14 1.14 1.08 1.03 1.05 1.11 1.12 1.13 1.05 1.04 1.14 1.17 1.20 1.29 1.33 1.35 1.36 1.38 1.40 1.44 1.45 1.40 1.41 1.42 1.39 1.50 1.49 1.50 1.51 1.51 1.53 1.49 1.51 1.54 1.51 1.49 1.47
1.14 1.21 1.23 1.26 1.31 1.34 1.34 1.37 1.41 1.41 1.44 1.44 1.40 1.37 1.37 1.31 1.24 1.22 1.25 1.27 1.27 1.27 1.26 1.30 1.35 1.38 1.39 1.35 1.35 1.40 1.42 1.40 1.39 1.38 1.34 1.31 1.28 1.27 1.26 1.24 1.25 1.23 1.23 1.24 1.21 1.20 1.18 1.15 1.14 1.07 1.11 1.03 0.99 1.08 1.11 1.08 0.98 0.95 0.94 0.98 1.06 1.19 1.26 1.31 1.33 1.35 1.37 1.37 1.37 1.34 1.36 1.37 1.38 1.40 1.46 1.50 1.48 1.51 1.49 1.53 1.52 1.51 1.48 1.44 1.43
1.19 1.22 1.28 1.27 1.29 1.31 1.34 1.37 1.39 1.36 1.31 1.37 1.41 1.35 1.38 1.35 1.30 1.25 1.26 1.26 1.33 1.33 1.31 1.31 1.32 1.30 1.31 1.32 1.35 1.38 1.38 1.36 1.34 1.33 1.30 1.31 1.29 1.25 1.23 1.23 1.22 1.22 1.19 1.17 1.17 1.14 1.14 1.11 1.10 1.03 0.99 1.04 1.04 1.13 1.11 1.12 0.97 1.02 1.03 0.93 0.88 0.89 1.07 1.16 1.29 1.33 1.35 1.35 1.35 1.32 1.31 1.31 1.32 1.42 1.47 1.49 1.47 1.47 1.51 1.50 1.49 1.50 1.45 1.41 1.41
1.19 1.23 1.27 1.26 1.28 1.29 1.32 1.34 1.36 1.37 1.34 1.37 1.39 1.41 1.40 1.37 1.35 1.31 1.32 1.30 1.25 1.30 1.31 1.30 1.27 1.26 1.26 1.34 1.38 1.38 1.34 1.30 1.29 1.28 1.27 1.27 1.24 1.22 1.21 1.21 1.20 1.21 1.18 1.12 1.11 1.08 1.08 1.07 1.07 1.06 1.03 0.93 0.97 1.03 1.14 1.13 1.08 0.99 0.82 0.84 0.86 0.85 0.77 0.88 1.02 1.19 1.32 1.29 1.28 1.26 1.26 1.26 1.32 1.32 1.34 1.35 1.39 1.44 1.44 1.45 1.45 1.43 1.42 1.42 1.43
1.18 1.20 1.25 1.28 1.27 1.27 1.31 1.33 1.36 1.37 1.39 1.39 1.39 1.41 1.38 1.33 1.31 1.31 1.33 1.31 1.31 1.26 1.24 1.22 1.24 1.25 1.28 1.31 1.31 1.32 1.28 1.25 1.24 1.22 1.22 1.19 1.18 1.18 1.18 1.18 1.15 1.15 1.15 1.11 1.07 1.06 1.08 1.08 1.08 1.05 1.04 1.00 0.96 1.02 1.09 1.13 1.11 1.14 0.96 0.82 0.76 0.72 0.76 0.86 0.94 1.01 1.19 1.19 1.20 1.22 1.23 1.23 1.25 1.28 1.28 1.29 1.34 1.36 1.36 1.36 1.40 1.37 1.36 1.38 1.40
1.18 1.22 1.26 1.30 1.31 1.28 1.30 1.34 1.37 1.39 1.39 1.39 1.39 1.38 1.32 1.26 1.21 1.17 1.13 1.16 1.11 1.12 1.11 1.12 1.16 1.19 1.21 1.27 1.26 1.25 1.23 1.21 1.20 1.19 1.15 1.14 1.12 1.14 1.14 1.11 1.11 1.09 1.10 1.10 1.08 1.07 1.06 1.05 1.07 1.08 1.07 1.10 1.05 0.99 0.97 1.09 1.09 1.07 1.05 1.01 0.97 0.85 0.79 0.87 0.84 0.72 1.06 1.17 1.17 1.17 1.17 1.19 1.24 1.25 1.26 1.24 1.26 1.29 1.31 1.32 1.35 1.32 1.35 1.37 1.38
1.20 1.26 1.29 1.29 1.31 1.30 1.30 1.34 1.36 1.36 1.37 1.36 1.37 1.36 1.29 1.26 1.22 1.18 1.16 1.14 1.10 1.14 1.22 1.24 1.23 1.25 1.25 1.19 1.19 1.20 1.19 1.16 1.16 1.16 1.15 1.14 1.14 1.12 1.12 1.11 1.09 1.08 1.07 1.05 1.03 1.02 1.04 1.05 1.09 1.07 1.09 1.11 1.07 0.97 0.96 0.99 1.04 1.05 1.06 1.05 1.03 1.00 0.98 0.83 0.76 0.83 0.76 0.97 1.08 1.06 1.11 1.18 1.20 1.21 1.20 1.21 1.23 1.23 1.27 1.31 1.30 1.32 1.32 1.34 1.34
1.24 1.25 1.27 1.29 1.27 1.28 1.27 1.31 1.35 1.34 1.35 1.35 1.35 1.35 1.28 1.26 1.24 1.21 1.21 1.18 1.15 1.15 1.19 1.22 1.26 1.24 1.18 1.14 1.13 1.14 1.15 1.15 1.13 1.14 1.14 1.13 1.12 1.09 1.09 1.07 1.03 1.02 1.01 0.98 0.99 1.02 1.03 1.05 1.06 1.07 1.10 1.08 1.05 0.99 0.97 1.00 0.93 0.94 1.04 1.01 1.00 1.02 1.03 0.98 0.94 0.84 0.81 0.76 0.83 1.04 1.11 1.11 1.13 1.15 1.17 1.18 1.19 1.20 1.22 1.25 1.26 1.27 1.29 1.29 1.27
1.24 1.22 1.24 1.25 1.28 1.27 1.26 1.30 1.33 1.33 1.34 1.35 1.35 1.37 1.33 1.28 1.24 1.23 1.19 1.22 1.21 1.21 1.23 1.24 1.20 1.19 1.11 1.10 1.07 1.08 1.09 1.10 1.11 1.10 1.11 1.09 1.07 1.04 1.01 0.99 0.96 0.94 0.92 0.92 0.94 0.96 0.98 0.99 0.99 1.01 1.01 1.04 1.05 1.05 1.01 0.99 0.99 0.97 0.97 0.97 1.00 0.98 0.97 0.98 0.97 0.97 0.86 0.77 0.79 0.85 0.89 1.04 1.08 1.10 1.15 1.18 1.19 1.21 1.21 1.22 1.23 1.25 1.25 1.24 1.20
1.26 1.25 1.27 1.27 1.25 1.25 1.24 1.28 1.28 1.31 1.34 1.35 1.39 1.36 1.33 1.29 1.23 1.19 1.13 1.14 1.20 1.21 1.22 1.18 1.15 1.13 1.05 1.03 1.03 1.01 1.00 1.00 1.02 1.05 1.03 1.03 1.00 0.97 0.94 0.92 0.91 0.89 0.86 0.86 0.87 0.88 0.89 0.92 0.96 0.98 1.00 0.99 1.03 1.03 1.01 1.02 1.02 1.03 1.01 1.00 0.95 0.96 0.91 0.90 0.91 0.93 0.93 0.90 0.78 0.82 0.87 0.87 0.85 0.98 1.10 1.11 1.14 1.16 1.18 1.19 1.19 1.20 1.21 1.18 1.07
1.26 1.23 1.25 1.25 1.24 1.22 1.23 1.23 1.27 1.31 1.37 1.35 1.36 1.30 1.30 1.28 1.24 1.21 1.18 1.14 1.19 1.19 1.16 1.13 1.10 1.05 0.97 0.96 0.95 0.92 0.91 0.89 0.92 0.94 0.95 0.93 0.92 0.92 0.90 0.88 0.87 0.84 0.83 0.82 0.84 0.84 0.86 0.87 0.91 0.94 0.93 0.92 0.94 0.97 0.99 1.00 1.01 1.00 1.03 1.00 1.02 0.95 0.89 0.84 0.86 0.89 0.88 0.85 0.84 0.83 0.87 0.91 0.91 0.90 1.00 1.07 1.09 1.11 1.13 1.14 1.13 1.14 1.10 0.99 0.90
Wind_Speed
14 15 15 15 14 13 13 12 10 9 7 6 5 4 4 4 4 5 5 5 5 4 4 3 3 3 3 3 3 2 2 2 1 0 0 1 1 2 3 3 4 5 5 5 6 6 6 7 8 8 9 9 10 11 12 12 12 12 12 13 12 12 12 13 12 12 12 11 11 11 10 10 9 9 9 9 9 8 8 8 8 9 9 9 10
15 15 15 15 14 14 13 12 11 9 8 7 6 5 4 4 5 5 5 5 5 5 4 4 4 4 4 3 3 3 3 2 2 1 0 0 1 2 2 3 4 4 4 5 5 5 6 6 7 8 9 9 10 11 12 12 12 12 12 13 13 12 12 13 13 12 12 12 12 12 11 10 10 10 9 9 9 8 8 8 8 8 9 9 9
15 15 15 15 14 14 13 12 11 10 9 7 6 6 5 5 5 5 6 6 5 5 5 4 4 4 4 4 4 4 3 3 2 2 1 1 0 1 1 2 3 3 4 4 4 5 5 6 7 7 8 8 9 11 11 12 12 12 12 12 12 12 12 13 13 13 13 12 12 12 11 11 10 10 10 9 9 9 8 8 8 8 9 9 9
15 15 15 15 14 14 13 13 12 10 9 8 7 6 6 6 5 5 6 6 6 5 5 5 5 4 4 5 4 4 4 3 3 3 2 1 1 0 0 1 2 3 3 4 4 4 5 5 6 7 7 8 9 10 11 12 12 12 12 12 12 12 12 13 13 13 13 12 12 12 11 11 11 10 10 9 9 9 9 8 9 9 9 9 9
15 15 15 15 14 14 13 13 12 11 10 9 8 7 6 6 6 6 6 6 6 6 6 5 5 5 5 5 5 5 4 4 3 3 3 2 2 1 0 0 1 2 3 3 3 3 4 5 5 6 7 7 8 9 10 11 12 12 12 12 12 12 12 13 13 13 13 12 12 11 11 11 11 10 10 9 9 9 9 8 8 8 9 9 9
15 15 15 14 14 14 13 13 12 11 10 9 8 7 7 7 6 6 6 6 6 6 6 6 5 5 5 5 5 5 5 4 4 4 3 3 3 2 1 0 1 1 2 2 3 3 3 4 5 5 6 7 7 8 9 10 11 11 12 12 12 11 12 12 12 12 12 12 11 11 11 11 11 10 10 10 9 9 8 8 8 8 8 9 9
15 15 14 14 13 13 13 13 12 12 11 10 9 8 8 7 7 6 6 6 6 6 6 6 5 5 5 5 5 5 5 4 4 4 4 4 3 3 2 1 1 2 2 2 2 2 3 4 4 5 6 6 6 8 9 9 10 10 11 12 12 11 11 11 12 12 12 11 11 10 10 10 10 10 10 10 9 9 8 8 8 8 8 8 9
14 14 14 14 13 14 14 14 13 12 11 10 9 9 8 8 7 7 7 7 6 6 6 6 5 5 5 5 5 5 5 5 5 5 4 4 4 4 3 3 2 2 2 2 2 2 3 4 4 5 5 6 7 7 8 9 9 10 10 11 11 11 11 11 11 11 11 11 11 10 10 10 10 9 10 10 9 9 8 8 8 8 8 8 8
14 14 14 14 14 15 15 14 13 12 11 11 10 9 9 8 8 7 7 7 6 6 6 6 6 6 6 6 6 6 5 5 5 5 5 5 5 5 4 4 3 3 3 3 3 3 3 4 4 4 5 6 6 7 7 8 8 9 9 10 11 11 11 11 11 11 11 10 10 10 10 9 9 9 9 9 9 9 9 8 8 8 8 8 9
14 14 14 14 15 15 15 14 14 13 12 11 10 10 9 9 8 7 7 6 6 6 6 6 6 6 6 6 6 6 6 6 6 6 6 6 6 5 5 5 5 4 3 3 4 4 4 4 4 4 5 6 6 6 6 7 7 8 8 9 10 10 11 11 11 11 10 10 10 10 10 10 10 10 10 9 9 9 9 9 9 9 9 9 9
14 14 14 14 15 15 15 15 14 13 12 11 11 10 9 9 8 7 7 6 6 6 6 6 6 7 7 7 6 7 6 6 6 7 7 7 6 6 6 6 6 5 5 4 4 4 4 5 5 5 5 5 5 6 6 6 6 6 7 8 9 9 10 10 10 10 10 10 10 10 10 10 11 10 10 10 10 10 9 9 9 9 9 9 9
14 14 14 15 15 16 15 15 14 13 12 12 11 10 9 9 8 7 7 6 6 6 6 6 6 7 7 7 7 7 7 6 7 7 7 7 7 6 7 6 6 6 6 5 5 4 5 5 5 5 5 4 4 5 5 5 5 6 6 7 8 8 9 9 9 9 10 10 10 10 10 10 10 10 10 10 10 10 9 9 9 9 9 9 9
14 14 15 15 15 16 15 15 14 13 12 12 11 10 9 9 8 7 7 6 6 6 6 7 7 7 7 7 7 7 7 7 7 7 8 8 7 7 7 7 7 7 6 6 6 5 5 6 5 5 4 4 4 4 4 4 4 5 6 6 7 7 8 8 8 9 9 9 9 9 9 10 10 10 10 9 9 9 9 9 9 9 9 9 9
14 14 15 15 16 16 15 15 14 13 13 12 11 10 10 9 8 8 7 7 6 6 7 7 7 7 7 8 8 8 8 7 7 8 8 8 8 8 7 7 8 8 7 7 6 6 6 6 6 5 4 3 3 3 3 3 4 4 5 5 6 6 6 7 7 7 7 8 8 8 8 9 9 9 9 9 9 9 9 9 9 9 9 9 9
14 15 15 15 16 16 15 15 14 13 12 11 11 10 10 9 8 8 7 7 7 7 7 7 7 8 8 8 8 8 8 7 8 8 9 9 9 9 8 8 8 8 8 8 7 7 7 7 6 5 4 3 3 2 3 3 3 3 4 4 4 5 5 5 6 6 6 6 7 7 7 7 8 8 8 8 8 8 8 8 8 9 9 9 9
15 15 16 16 16 16 15 15 14 13 12 12 11 10 10 9 8 7 7 7 7 7 7 7 8 8 8 8 8 8 7 8 8 8 8 9 9 9 9 8 8 9 9 9 8 8 8 8 7 6 5 4 3 2 2 2 2 2 3 3 3 3 3 4 4 4 5 5 5 5 5 6 6 7 7 7 7 7 7 7 7 8 8 8 8
15 15 16 16 16 16 16 15 14 13 12 12 11 11 10 9 8 7 7 7 7 7 7 8 8 8 8 8 8 8 8 8 8 8 8 9 9 9 9 9 9 9 9 9 9 9 9 8 7 6 5 4 3 2 2 2 2 2 2 2 2 2 2 3 3 3 3 3 3 3 4 4 4 5 5 6 6 6 6 6 6 7 7 7 8
15 15 16 16 16 16 16 15 14 13 12 12 11 11 10 9 8 8 7 7 7 7 8 8 8 8 8 8 8 8 8 8 8 8 8 9 9 9 9 10 10 10 10 9 10 10 10 9 8 7 6 5 4 3 3 2 3 2 2 2 2 2 1 1 2 2 2 2 2 2 2 2 2 3 4 4 5 5 5 5 5 6 6 6 7
15 16 16 17 16 16 16 15 14 13 12 12 11 10 9 8 8 8 8 7 7 7 8 8 8 8 8 8 8 8 8 8 8 8 8 9 10 10 10 10 10 10 10 10 11 11 11 10 9 8 7 6 5 4 4 3 3 3 3 2 2 2 1 1 0 1 0 0 0 0 0 1 1 2 2 3 3 3 3 4 4 4 5 5 6
15 16 16 16 16 16 16 15 14 14 13 12 11 10 9 9 8 8 7 7 7 7 7 7 7 8 8 8 8 8 8 8 8 8 8 8 9 10 10 11 11 11 11 11 12 12 12 11 10 9 8 7 6 6 5 4 4 4 4 3 3 2 2 2 1 1 2 2 2 1 1 1 1 1 1 1 1 2 2 2 3 3 3 4 4
16 17 17 17 17 16 16 15 15 14 13 12 11 10 9 9 8 8 7 7 7 7 7 7 7 8 8 8 8 8 8 8 8 8 8 8 9 10 11 11 11 11 11 12 13 13 13 12 11 10 9 8 7 7 6 5 5 5 5 4 4 4 4 3 3 3 3 3 3 3 3 2 2 2 1 1 1 0 0 1 1 2 2 2 3
17 17 17 17 17 17 16 15 15 14 13 12 11 10 10 9 9 8 8 7 7 7 7 7 8 8 8 8 8 8 8 8 8 8 8 8 8 9 10 11 12 12 12 12 13 14 13 13 12 12 11 10 9 8 7 6 6 6 6 5 5 5 5 5 4 4 4 4 4 4 4 4 3 3 3 3 2 2 1 1 1 0 1 1 2
18 17 17 17 17 17 17 16 15 15 14 13 12 11 10 10 9 9 8 7 7 7 7 8 8 8 8 8 8 8 8 8 8 8 8 8 8 9 10 11 11 12 12 12 13 14 14 13 13 13 12 11 10 9 8 7 7 7 7 6 6 6 6 6 6 5 5 5 5 5 5 4 4 4 4 4 4 3 3 2 2 2 1 0 0
18 18 18 17 17 17 17 16 16 15 14 13 12 11 11 10 9 9 9 8 8 8 8 8 8 8 8 8 8 8 8 7 7 7 7 8 8 8 9 10 11 11 12 12 13 13 13 14 13 13 13 12 10 10 9 9 8 7 8 7 7 7 7 7 6 6 6 6 6 6 5 5 5 5 5 5 5 5 4 4 3 3 2 2 1
18 18 18 17 17 18 17 17 16 15 14 13 13 12 11 10 10 10 9 9 8 8 8 8 8 8 8 8 8 8 8 7 7 7 7 7 7 8 9 10 10 11 11 11 12 13 13 14 13 13 14 13 11 10 10 9 9 8 8 8 7 7 7 7 7 7 7 7 7 6 6 6 6 6 6 6 6 6 6 5 4 4 4 3 2
19 19 19 18 17 17 17 16 16 14 14 14 13 12 11 11 10 10 10 9 9 9 8 9 9 9 9 8 8 8 8 7 7 7 7 7 7 8 8 9 9 10 10 11 12 12 13 13 13 13 13 13 12 11 10 10 9 8 8 8 7 8 8 8 8 8 8 8 8 7 7 7 7 7 6 7 7 7 7 6 6 5 5 4 4
18 20 18 17 17 16 15 15 15 14 13 13 12 12 11 11 10 10 10 10 9 9 9 9 9 9 9 9 8 8 8 8 7 8 8 7 7 7 8 8 8 9 9 9 11 12 12 12 12 12 11 11 12 11 10 10 9 8 8 8 8 8 9 9 9 9 8 8 8 8 8 8 8 8 7 7 7 7 8 7 7 7 6 6 5
17 19 17 16 16 16 15 14 14 13 13 12 11 11 11 10 10 10 10 10 9 9 9 9 9 9 9 9 9 8 8 8 8 8 8 7 7 8 8 8 8 8 9 9 10 11 11 11 11 10 10 8 9 10 10 10 9 9 8 8 8 9 9 9 9 9 9 9 9 9 8 8 8 8 8 7 7 7 8 8 8 8 8 7 7
17 17 15 14 15 15 15 14 14 13 12 12 11 11 11 10 10 10 10 10 9 9 9 9 9 9 9 9 9 9 8 8 8 8 8 8 8 8 8 8 9 9 10 10 11 12 12 12 11 10 10 9 8 8 9 9 9 9 9 9 9 9 9 9 9 9 9 9 9 9 9 8 8 8 8 8 7 7 7 7 8 8 8 8 8
15 16 15 14 14 14 14 15 14 13 12 11 11 11 11 10 10 9 9 9 9 9 9 9 9 9 9 9 9 9 9 9 9 8 8 8 8 8 8 8 8 8 9 10 11 12 12 12 11 11 11 10 9 8 8 8 9 9 10 10 10 10 9 9 9 9 9 9 9 9 9 8 8 8 8 8 7 7 7 7 7 7 8 8 8
12 14 14 14 14 14 14 14 14 13 13 11 11 11 11 10 10 9 8 8 8 8 8 8 8 9 9 10 10 9 9 9 9 8 8 8 8 8 8 7 7 7 8 9 10 12 12 12 12 11 11 11 9 8 8 8 9 9 10 10 10 10 10 10 9 9 9 9 9 9 9 9 8 8 7 7 7 7 7 6 6 6 7 8 8
11 11 11 14 15 15 15 14 14 13 13 12 11 11 11 10 10 9 8 8 9 9 9 9 9 9 10 10 10 9 8 8 8 8 8 8 8 8 7 7 7 7 7 8 8 9 10 11 11 11 10 10 9 8 8 8 9 9 9 9 9 9 9 9 9 9 9 9 9 9 9 9 8 8 7 6 6 7 6 6 6 6 6 6 7
11 10 10 13 14 15 14 13 13 12 12 12 11 11 10 10 9 8 8 8 8 8 8 8 9 9 10 10 9 9 8 8 8 8 8 8 8 8 7 7 7 7 7 7 8 8 8 9 9 9 9 9 9 9 9 9 9 9 9 9 9 9 9 9 9 9 9 9 9 9 8 8 8 7 7 6 6 6 6 6 6 5 5 5 5
11 10 10 11 11 12 13 12 11 11 11 11 11 11 10 9 9 8 8 8 8 7 7 7 8 9 9 9 9 8 8 7 7 7 8 8 8 8 7 7 7 7 7 7 7 7 7 8 8 8 9 9 9 9 9 9 9 8 8 8 9 9 9 8 8 8 9 9 8 8 8 8 8 7 7 6 6 6 6 6 6 6 5 5 5
10 9 9 10 10 11 12 12 11 11 10 10 10 10 9 9 9 8 8 8 8 7 8 8 8 8 9 9 9 8 8 7 7 7 7 8 8 8 7 7 7 7 7 7 7 7 7 7 8 8 8 9 9 9 9 9 8 8 8 8 8 8 8 8 8 8 8 8 7 7 8 8 8 7 6 6 6 6 6 6 6 6 5 5 5
10 9 8 10 11 12 13 13 13 12 12 11 11 10 10 9 9 9 8 8 8 8 8 8 8 9 9 9 9 9 9 8 8 8 8 8 8 8 7 7 7 7 8 8 8 8 8 8 8 8 8 8 8 8 8 8 7 7 7 7 7 7 7 7 7 7 7 7 6 6 6 6 7 6 6 6 5 5 5 6 6 5 5 5 5
11 10 9 10 12 13 14 14 14 14 13 12 11 11 10 10 10 9 9 9 9 9 9 9 9 9 10 10 10 9 9 9 8 8 8 8 8 8 8 7 7 8 8 8 9 9 9 9 9 8 8 8 8 8 7 7 6 6 6 6 6 6 6 6 7 6 6 6 6 5 5 5 5 5 5 5 5 4 4 4 5 5 5 5 5
12 11 10 10 11 13 13 14 14 14 13 12 11 11 11 10 10 10 10 10 10 10 10 10 10 10 10 10 10 10 9 9 9 9 9 9 9 9 8 8 8 8 8 8 8 9 9 9 8 8 8 8 8 7 7 7 6 6 5 5 5 6 6 5 6 6 5 6 5 4 4 4 4 4 4 4 3 3 3 3 4 4 4 4 4
12 12 11 10 11 12 13 14 14 14 13 13 12 11 11 10 10 10 10 10 10 11 11 10 10 11 10 10 10 10 10 9 9 9 9 9 9 9 9 9 8 8 8 8 8 8 9 8 8 8 8 8 8 7 7 6 6 5 5 5 5 5 5 5 5 5 5 5 4 4 3 3 4 4 3 3 3 3 3 3 3 3 3 2 3
12 12 11 11 11 12 13 14 14 14 14 13 13 12 11 11 10 10 10 10 11 11 11 11 11 11 11 11 10 10 10 10 9 9 9 9 10 10 9 9 8 8 8 8 8 9 9 8 8 8 8 8 8 7 7 6 6 5 4 4 4 4 4 4 4 4 4 4 3 3 3 3 4 4 4 4 4 4 3 3 2 2 2 2 2
12 12 12 11 11 12 13 14 14 14 14 13 13 12 12 11 11 11 11 11 11 11 11 11 12 12 11 11 10 10 10 10 10 10 10 10 10 10 9 9 9 8 8 8 9 8 8 8 8 8 8 8 7 7 7 7 6 5 5 4 4 3 3 3 3 3 3 3 3 3 3 3 3 4 4 4 4 4 3 3 2 2 2 2 3
12 13 12 12 12 13 13 14 14 14 14 13 12 12 12 12 11 11 12 12 12 12 12 12 12 12 12 11 11 11 11 11 10 10 10 10 10 10 9 9 9 9 8 8 8 8 8 8 8 8 8 8 7 8 8 7 6 6 6 5 4 3 2 2 2 2 3 3 3 3 3 3 3 3 4 4 3 3 3 3 3 2 2 2 3
12 12 13 13 13 13 13 14 14 14 14 13 13 13 12 12 11 11 12 12 12 12 12 12 12 12 12 12 11 11 11 11 11 10 10 10 10 9 9 9 9 9 8 8 8 8 8 8 8 8 8 8 7 8 8 7 7 7 6 5 5 4 3 2 2 2 3 3 3 3 2 2 2 3 3 3 3 3 3 3 3 3 2 2 2
12 12 12 13 13 13 13 14 14 14 14 14 14 13 12 12 11 11 12 12 12 12 12 12 12 12 12 12 12 11 11 11 11 11 11 10 10 9 9 9 9 9 8 8 8 8 8 8 8 8 8 8 8 8 8 8 8 7 6 5 5 5 5 4 3 2 3 3 3 3 3 3 3 3 3 3 4 4 4 4 4 3 3 3 2
12 12 13 13 13 13 14 15 15 14 14 15 14 13 13 12 11 11 12 12 12 12 12 12 12 12 12 12 12 11 11 10 10 10 10 10 9 9 9 9 9 9 8 8 8 8 8 9 9 9 9 9 8 9 9 8 8 7 6 6 6 6 6 5 4 3 3 3 3 4 4 4 4 4 4 4 4 4 4 4 4 4 3 3 3
13 12 13 13 13 13 14 15 15 15 15 15 15 14 13 13 13 13 13 13 13 13 13 13 12 12 12 11 11 11 10 10 10 10 9 9 8 8 8 8 8 8 8 8 8 8 8 9 9 9 9 9 9 9 9 9 8 8 7 6 6 6 6 6 6 5 4 4 4 4 4 4 4 4 4 4 4 4 4 4 3 3 3 3 3
14 13 13 14 14 14 15 16 16 16 16 16 15 15 14 14 14 14 14 15 14 14 13 13 12 12 12 11 11 10 10 9 9 9 9 8 8 8 7 7 7 7 7 7 8 8 8 9 9 9 9 9 9 9 9 9 9 9 8 7 6 6 6 7 7 6 6 5 4 4 4 4 4 4 4 4 4 4 4 3 3 3 3 2 2
14 14 14 14 15 15 15 16 16 16 17 16 16 16 15 15 15 15 15 15 14 14 14 13 12 12 12 11 11 10 9 9 9 8 8 8 7 7 7 7 7 7 7 7 7 7 8 9 9 9 9 9 9 9 9 9 9 9 9 8 8 7 7 7 7 7 7 6 5 5 4 4 4 4 4 4 4 4 4 4 3 3 2 2 2
15 15 15 15 15 15 15 16 16 17 17 17 17 16 16 15 15 15 15 15 14 14 14 13 13 12 12 11 10 10 9 9 8 8 7 7 7 7 7 7 6 6 7 7 7 7 8 9 9 10 10 10 9 9 9 9 9 9 9 9 9 8 8 7 8 8 7 7 6 6 5 5 5 5 5 5 4 4 4 4 3 3 3 2 2
16 15 15 16 15 15 15 16 17 17 17 17 17 16 16 15 15 15 15 15 15 14 14 13 13 13 12 11 10 10 10 9 8 7 7 7 7 7 6 6 6 6 6 6 7 7 7 8 9 9 9 10 10 9 9 9 9 9 9 9 9 9 9 8 9 8 8 7 7 6 6 6 6 5 5 5 4 4 4 4 3 3 3 2 2
16 15 15 16 15 14 15 16 17 17 17 17 17 15 15 15 15 15 15 15 16 16 15 14 14 13 13 12 11 10 10 9 8 7 7 7 6 6 6 6 5 5 5 6 6 7 7 7 8 8 8 9 9 9 9 9 9 9 9 9 9 9 9 9 9 9 8 8 7 7 7 6 6 5 5 5 5 4 4 4 3 3 3 2 2
Wind_Direction
226 222 220 222 222 222 223 222 223 224 221 218 220 227 235 237 230 225 220 218 217 216 219 220 222 224 224 225 220 214 211 203 199 187 110 76 67 58 50 45 45 44 43 44 48 54 58 61 60 59 58 59 61 63 64 62 61 61 62 64 66 73 84 91 90 87 88 86 84 86 88 89 89 90 89 87 86 85 83 81 79 77 78 80 80
221 221 219 220 219 220 221 220 221 221 218 215 217 226 233 236 233 228 224 221 217 216 216 217 219 222 225 226 225 220 219 218 215 213 215 80 71 61 54 47 45 44 44 46 50 58 63 64 65 63 62 64 67 67 65 63 62 62 64 65 68 75 83 88 89 88 87 85 84 85 86 87 87 88 88 86 84 83 83 81 80 79 79 81 81
217 220 220 217 216 217 218 217 219 219 217 213 217 226 233 238 236 231 226 223 220 218 218 218 218 220 226 228 229 225 222 223 223 221 228 223 136 75 59 46 45 46 50 52 57 66 68 69 69 67 67 70 71 69 66 65 63 62 64 67 70 75 81 87 90 89 87 85 84 84 83 84 84 85 84 83 81 81 82 81 80 81 81 81 82
216 216 217 215 213 214 215 216 217 218 217 216 220 227 234 239 241 237 229 225 222 221 220 221 220 221 227 229 230 227 225 225 227 228 228 228 212 185 67 50 52 53 58 62 66 73 75 74 73 71 75 77 74 71 68 66 65 63 64 69 73 77 82 88 89 89 87 85 84 83 82 81 81 81 81 81 81 82 83 81 80 81 82 82 83
214 213 212 212 213 212 213 214 216 217 217 219 223 228 233 237 241 239 232 227 224 224 223 223 221 222 227 230 230 228 226 225 229 231 230 231 227 219 204 55 66 66 71 74 76 81 82 81 78 79 83 83 77 73 71 69 67 64 65 69 74 79 84 87 87 86 85 84 83 81 80 80 79 78 79 79 81 82 82 82 81 82 82 83 83
211 210 207 209 212 212 212 213 214 215 218 221 225 229 233 237 241 239 231 228 225 224 223 223 222 224 228 229 231 229 227 226 229 231 232 234 233 222 206 217 122 103 98 93 92 93 94 93 87 89 92 88 80 75 74 72 69 66 66 68 73 80 85 86 85 85 84 83 81 79 78 79 78 76 76 77 78 79 79 80 81 81 81 81 83
209 208 206 209 211 212 212 212 214 216 219 223 227 230 233 237 240 238 232 229 227 226 224 224 224 226 228 230 231 230 228 228 231 231 234 235 233 226 215 216 181 149 138 121 114 110 107 106 99 99 98 92 84 78 77 74 72 69 68 69 72 78 85 86 85 86 85 82 79 78 77 77 78 77 76 76 78 78 77 77 77 77 79 79 81
208 208 208 211 212 212 212 213 215 218 220 223 227 231 234 235 237 237 232 231 230 229 228 228 228 228 228 229 231 232 229 229 231 230 236 238 233 227 221 216 197 178 167 151 141 127 117 115 110 108 101 94 88 81 79 78 76 72 70 70 72 77 84 86 86 86 85 81 79 78 76 77 78 78 77 77 77 77 75 73 74 76 78 78 81
209 208 210 212 211 211 212 214 216 218 221 224 227 230 234 234 234 234 233 233 232 232 231 230 230 230 229 230 232 231 228 228 230 231 237 238 233 227 220 214 202 190 182 174 160 138 127 125 122 118 107 97 91 84 81 80 79 76 74 73 74 77 82 85 85 85 83 80 79 77 76 78 78 78 77 75 75 74 72 72 73 76 78 81 83
210 210 212 213 211 211 213 215 217 219 222 225 227 230 233 234 233 232 233 233 233 233 232 231 230 232 232 232 231 228 226 231 232 233 236 235 232 226 218 214 205 197 193 184 167 148 138 136 133 128 114 102 95 86 81 81 81 79 78 78 77 78 81 83 85 84 82 80 78 77 78 79 78 78 78 76 74 73 72 72 74 76 78 81 84
213 213 214 214 212 212 214 216 217 219 222 224 226 229 231 231 230 230 231 232 233 234 233 231 231 234 234 230 228 228 230 234 235 233 234 233 230 223 219 217 208 202 199 189 175 159 151 149 145 138 123 110 99 87 82 83 83 81 82 83 82 81 81 82 83 83 82 80 78 79 80 79 77 78 78 77 75 73 73 73 74 75 77 80 83
217 217 216 214 212 212 214 216 218 219 221 223 225 227 227 226 226 228 230 233 234 235 235 230 230 232 231 229 228 232 235 237 236 232 232 230 227 223 222 217 208 203 201 193 182 168 161 160 157 148 132 119 103 90 85 87 87 84 86 88 86 83 83 82 82 83 82 81 80 80 80 78 77 76 76 75 73 73 74 75 75 75 77 80 82
221 219 217 213 212 212 213 216 218 219 220 222 224 224 223 223 223 227 231 233 234 233 234 230 231 231 229 230 231 236 241 243 239 231 228 227 225 224 221 215 209 205 203 196 187 177 170 168 166 158 142 129 112 96 92 94 93 90 91 92 89 85 85 85 84 84 83 83 82 81 79 76 76 75 75 74 72 72 74 75 76 77 79 80 82
222 220 216 212 212 211 213 216 217 218 219 221 221 221 220 221 223 228 231 232 233 232 232 233 233 233 232 233 236 241 245 245 239 230 228 227 226 224 221 215 211 208 205 199 193 185 177 175 175 170 159 148 129 111 104 105 103 96 96 97 94 89 87 88 88 88 87 85 84 81 78 74 74 73 71 70 70 72 74 76 77 79 80 81 81
222 219 215 212 211 211 214 215 217 217 218 219 218 218 219 221 225 227 231 233 236 236 235 236 237 237 236 237 240 243 245 241 235 230 229 230 229 225 220 215 212 211 208 203 197 189 182 182 184 182 180 175 159 135 124 121 116 104 99 101 101 95 91 92 93 92 90 88 85 82 77 73 71 69 66 65 66 69 73 76 78 79 80 81 81
221 218 214 211 211 212 214 215 216 216 216 216 216 217 219 221 226 228 233 237 240 241 240 241 240 239 238 239 241 241 240 236 232 230 230 230 230 227 221 216 214 213 210 207 200 192 188 190 192 191 194 198 190 164 149 148 139 123 111 110 111 105 96 96 98 97 95 92 88 84 78 74 70 64 61 60 62 66 70 75 79 80 81 81 82
220 217 214 212 211 212 214 214 214 214 214 213 214 216 219 222 227 231 236 240 242 243 243 242 240 239 239 239 239 237 235 233 231 231 231 228 227 227 223 217 216 214 213 210 204 197 194 196 197 199 204 210 211 198 180 176 173 163 145 134 131 123 108 101 104 103 101 100 96 85 78 75 68 59 56 56 60 64 68 73 77 78 80 82 83
219 216 215 213 211 212 213 214 213 212 212 212 215 217 220 224 228 234 238 241 242 244 243 241 239 239 238 236 235 233 231 231 231 230 230 227 225 226 223 220 219 217 217 214 208 201 199 200 202 207 212 216 220 218 209 202 200 201 193 177 166 157 140 117 114 115 111 109 104 87 80 80 64 51 51 55 58 61 65 70 74 76 78 81 85
218 214 214 214 211 212 212 212 211 211 212 213 216 218 221 225 229 235 238 242 243 245 244 241 240 238 235 232 231 231 231 232 232 231 230 227 225 225 225 225 224 221 221 217 212 206 205 208 209 213 215 220 224 223 225 222 219 222 222 214 204 197 192 184 156 149 152 169 191 140 107 91 41 34 43 51 56 60 64 68 73 77 78 80 84
216 213 211 212 210 211 210 210 210 210 212 214 217 219 222 225 230 236 240 243 243 245 244 241 238 234 232 230 231 233 234 234 233 232 230 227 226 228 229 230 229 225 224 221 216 211 211 214 216 217 219 223 225 225 229 233 232 231 232 230 227 231 240 257 273 282 284 275 269 270 263 277 315 347 14 26 48 62 63 67 71 74 79 82 84
216 213 210 210 209 209 209 209 209 210 212 213 216 218 221 225 231 238 242 244 242 243 242 238 233 231 231 230 233 235 235 236 235 233 230 231 232 233 233 233 231 228 226 224 220 216 215 217 220 223 224 225 225 227 231 237 239 235 235 235 239 250 258 266 274 281 283 280 279 277 272 278 286 290 295 294 285 286 34 50 55 60 77 84 87
217 214 211 209 208 208 208 208 209 210 212 214 216 218 221 226 233 238 241 241 239 240 239 234 231 231 232 232 234 236 237 237 237 235 235 237 236 235 233 233 232 229 227 226 223 220 217 217 221 225 225 224 225 229 232 238 242 238 237 238 245 255 260 266 272 277 278 279 282 279 274 276 278 280 280 270 261 255 261 282 301 328 61 80 88
218 215 211 208 208 208 208 208 209 210 213 215 217 220 223 228 234 238 239 238 237 238 237 233 231 231 233 234 235 236 237 238 238 237 236 236 234 233 232 231 230 228 227 226 224 221 219 218 220 225 226 225 228 230 232 238 241 240 241 244 251 256 260 265 271 275 274 277 280 276 272 271 272 276 277 269 258 253 255 263 270 267 257 237 99
217 214 210 207 207 207 207 208 209 211 215 217 218 222 225 230 235 237 238 236 236 237 234 231 230 231 232 233 235 233 234 236 235 233 231 231 231 231 230 229 228 227 226 226 223 220 219 220 222 226 228 228 230 231 232 236 241 243 246 250 254 256 259 263 268 271 272 275 276 271 268 267 268 270 272 269 260 253 251 253 258 255 247 242 245
213 211 208 205 205 207 208 209 210 213 218 220 221 224 226 230 234 236 238 235 233 233 231 230 230 231 231 232 232 230 231 232 231 228 227 228 231 231 230 228 227 227 226 225 223 220 219 222 224 228 232 232 230 231 233 236 242 246 249 251 252 254 257 261 265 269 271 274 272 268 265 265 265 264 267 267 262 256 251 249 250 248 244 243 245
214 209 205 202 202 204 206 208 210 213 218 220 222 225 227 231 233 234 236 232 229 229 229 230 231 231 231 232 231 229 229 230 229 227 227 229 232 232 229 228 227 225 225 224 223 221 220 222 225 229 234 234 231 233 235 237 242 246 249 250 251 254 257 261 265 267 269 270 268 264 262 264 264 265 268 266 262 258 252 248 246 245 245 244 247
211 204 201 199 200 201 202 204 208 211 213 216 220 224 227 229 231 231 231 229 228 229 230 231 233 233 232 232 231 229 228 230 230 228 229 231 233 230 227 226 224 223 223 223 222 221 220 220 223 226 229 231 230 233 236 236 240 245 248 250 252 255 257 261 264 265 265 265 263 260 259 262 264 266 268 267 263 257 252 248 245 244 244 245 247
203 198 197 197 199 201 201 204 206 208 210 213 219 222 224 227 229 229 228 227 226 229 232 233 233 232 233 233 230 227 225 228 230 228 229 232 232 228 224 226 229 228 225 223 222 220 218 216 218 221 223 226 228 231 234 235 239 245 248 251 255 258 258 260 263 262 262 262 260 257 258 261 262 265 266 266 264 258 252 248 246 244 244 244 246
198 197 197 199 203 203 202 204 205 207 211 215 219 221 223 226 227 224 222 222 223 229 232 234 236 233 232 232 228 224 223 226 231 230 230 231 229 225 226 229 233 235 232 227 223 219 218 217 219 224 227 227 230 234 236 237 240 246 250 255 258 258 258 259 260 259 258 260 259 257 257 258 259 263 264 263 263 258 253 249 248 247 246 246 247
197 200 203 207 207 204 202 204 208 212 216 216 220 222 224 227 226 218 213 215 221 226 231 235 236 232 230 228 224 223 225 229 232 232 231 229 224 224 227 231 233 234 233 227 222 220 219 220 222 229 231 227 232 241 241 240 244 249 253 256 256 256 256 257 257 257 257 258 259 258 257 256 255 259 261 261 259 255 252 250 250 251 248 247 247
200 201 207 207 203 201 201 207 213 216 215 216 220 222 223 228 226 217 211 215 221 227 233 236 236 232 227 223 222 225 231 232 232 231 229 225 223 224 227 229 229 228 226 222 219 219 220 223 226 229 229 226 233 243 244 246 250 253 255 255 255 256 256 256 256 256 256 258 259 258 257 253 252 256 259 258 253 248 249 249 251 252 248 247 246
206 202 206 202 200 201 202 210 216 215 213 216 220 221 225 228 225 221 219 221 227 234 239 240 237 229 221 220 223 227 231 230 227 228 226 223 223 224 225 221 220 219 217 214 211 212 215 218 221 221 221 224 235 245 247 250 252 254 256 255 255 256 256 256 257 257 257 258 257 257 258 255 250 251 256 256 248 241 243 246 249 249 247 248 247
215 211 206 197 196 198 199 206 212 211 211 215 219 221 226 228 225 224 223 225 230 235 238 235 229 219 214 218 221 219 222 223 220 222 223 223 221 220 219 214 213 214 212 208 205 206 208 210 213 216 218 225 238 246 249 251 253 255 256 255 256 256 257 258 259 259 258 256 256 257 259 256 249 246 249 251 244 236 237 241 244 245 244 248 245
219 217 209 196 188 188 195 203 205 204 207 214 219 220 223 224 224 223 223 226 229 230 227 220 213 209 210 214 214 212 214 216 217 218 219 218 215 214 213 211 213 214 208 206 205 208 211 213 217 221 225 231 240 245 248 252 254 255 255 255 257 258 259 259 259 259 256 254 256 260 259 255 250 245 245 248 246 236 234 236 239 243 245 245 244
218 216 211 203 196 195 204 212 211 211 213 217 220 218 218 218 218 219 220 223 224 224 218 211 209 208 209 212 214 214 214 216 217 217 215 213 210 209 210 212 217 217 213 212 213 217 218 219 222 225 229 234 239 243 247 250 253 255 256 257 257 258 259 259 258 257 254 252 257 260 256 252 248 243 240 244 248 241 235 234 235 238 241 244 247
219 220 216 211 212 215 219 221 220 222 223 223 223 220 218 216 217 218 219 220 220 221 216 212 212 211 213 216 218 218 217 218 218 218 217 216 213 212 212 215 219 222 223 221 222 225 225 225 228 231 233 236 239 241 245 248 250 254 256 257 256 255 255 256 256 254 251 250 255 258 253 249 245 240 240 241 245 242 235 232 231 233 236 243 250
221 223 220 215 218 221 222 222 223 225 226 225 224 222 219 218 221 222 223 224 224 223 218 216 216 216 218 220 220 220 220 221 222 223 224 223 221 218 218 218 220 222 224 225 226 227 228 230 231 234 235 236 238 240 242 244 246 251 253 252 251 251 251 252 251 248 246 246 250 254 255 255 245 241 247 244 238 231 225 223 224 229 235 242 250
221 224 223 220 221 221 220 221 222 225 226 225 224 222 220 220 223 225 227 228 226 223 220 219 220 219 221 222 222 223 224 227 227 227 228 227 226 223 222 221 220 222 223 226 227 226 227 230 230 232 234 234 236 237 239 240 242 246 246 245 245 246 247 248 247 243 242 243 247 249 252 252 237 232 245 242 226 213 211 215 221 227 236 242 250
220 223 224 222 222 220 220 221 222 223 223 223 222 221 220 221 225 227 228 227 224 220 219 219 219 220 221 222 223 224 226 228 229 228 227 227 226 224 223 221 221 223 224 226 227 226 227 228 229 229 232 234 234 233 234 233 234 235 235 235 237 238 242 244 241 236 235 239 245 245 243 242 232 232 238 232 221 213 212 217 223 229 237 245 254
221 223 223 221 221 221 222 222 222 222 223 223 220 219 220 222 224 225 225 224 221 218 218 218 218 219 220 221 222 223 225 226 227 227 225 224 224 223 223 223 224 225 226 227 228 229 228 229 230 228 228 231 231 229 226 222 220 221 223 224 225 228 235 236 231 225 226 234 240 240 242 243 238 236 234 227 223 219 217 220 222 227 235 249 260
224 225 222 220 221 223 222 222 222 223 223 221 218 217 218 220 221 222 222 221 218 216 217 219 219 219 220 221 221 222 223 225 226 225 225 224 224 224 225 225 226 228 228 228 228 229 229 228 227 226 224 224 226 223 216 213 211 210 209 208 210 217 222 223 221 219 223 229 234 240 246 248 240 232 227 222 221 219 220 222 219 226 243 259 270
227 227 224 223 222 223 223 222 223 224 221 216 216 218 219 219 220 221 220 218 217 216 218 219 219 219 220 221 221 222 224 226 226 226 225 225 224 225 226 226 227 228 227 226 225 226 226 224 223 223 222 220 221 217 210 210 211 208 205 202 202 205 209 214 214 217 225 228 233 239 248 249 237 226 220 214 213 215 219 225 229 246 264 271 278
226 227 226 225 223 224 224 222 222 223 220 216 217 220 220 220 222 221 218 217 217 217 218 217 217 218 220 220 221 223 225 226 226 226 225 225 224 224 225 225 225 225 224 223 223 224 223 222 220 220 218 215 216 213 210 212 211 206 206 210 212 212 215 223 225 231 233 232 234 234 242 244 226 217 216 209 209 214 219 229 240 254 268 277 286
225 226 227 226 226 227 225 223 224 223 219 218 219 221 220 219 220 219 217 216 216 216 217 217 217 219 220 221 222 223 225 225 224 224 224 224 224 224 224 223 223 223 223 222 223 225 225 223 220 217 213 212 212 211 211 213 211 208 212 218 220 223 229 229 230 242 244 241 239 235 239 244 232 226 226 223 224 226 231 241 249 256 265 276 286
225 225 227 228 229 229 225 224 225 222 219 218 219 221 220 217 217 216 217 216 215 216 216 217 218 219 220 220 221 222 221 221 220 219 220 221 222 222 221 220 222 222 222 224 226 227 226 224 220 217 213 210 210 211 213 214 212 212 216 220 225 233 234 227 228 243 250 246 239 236 242 245 242 239 239 238 235 237 244 250 251 256 264 270 276
227 226 227 229 231 229 225 224 224 222 220 218 219 220 220 218 216 215 216 215 214 215 216 217 217 216 217 217 217 217 217 215 214 213 213 215 216 216 216 217 218 220 223 226 229 229 227 224 221 218 215 212 212 212 213 214 214 215 217 223 234 237 230 227 232 239 243 245 240 241 246 243 241 242 242 244 240 241 246 245 246 255 260 262 269
229 228 229 229 230 227 224 224 225 224 221 220 220 220 219 219 218 217 217 216 215 216 217 217 216 214 212 213 214 214 213 211 209 209 210 211 212 213 214 215 216 219 224 227 228 227 226 224 221 221 219 216 216 216 215 216 219 221 223 229 237 237 233 235 236 232 232 242 249 247 244 240 241 243 244 245 243 241 243 239 240 248 251 253 267
228 231 232 230 228 226 225 225 225 225 223 221 220 219 219 219 219 218 218 217 216 215 215 213 211 209 209 210 212 211 209 207 205 206 207 209 211 214 215 217 219 222 225 228 227 224 223 223 223 223 223 220 220 221 220 220 225 228 231 235 237 236 239 240 236 232 228 232 240 239 237 236 238 240 242 245 245 241 240 239 237 238 243 255 268
229 233 233 230 228 227 226 226 225 225 223 221 220 218 219 218 218 217 218 218 217 213 210 208 205 205 206 207 207 206 203 202 200 201 204 208 211 213 216 219 223 225 228 229 228 225 223 222 223 225 226 225 225 225 225 225 230 233 235 237 237 237 240 238 234 233 230 229 231 229 230 234 236 240 241 242 242 237 234 234 233 231 237 252 261
230 232 231 229 229 229 228 226 226 225 223 221 217 215 215 216 216 216 216 215 213 209 206 204 203 203 203 201 200 199 198 197 197 200 204 209 212 215 217 220 223 227 230 231 230 228 226 224 223 225 226 226 227 228 229 230 232 234 236 237 237 237 239 236 232 231 231 230 227 223 227 230 232 238 240 238 235 230 229 229 227 225 227 236 241
229 229 228 226 227 229 228 227 227 225 225 221 212 209 213 216 215 214 212 210 208 206 203 202 202 200 198 196 195 196 196 197 200 204 208 211 214 216 219 221 225 230 232 234 233 231 230 228 226 225 226 226 228 230 233 235 234 233 233 236 239 239 240 240 235 231 231 229 222 222 228 228 225 229 233 231 227 224 225 225 220 217 220 222 218